Location: Alpha Ridge Park
(39.3209°N, 76.9128°W)
Time: 10:09:59
(UTC-04:00)

Transit 2A - Pass Details

Date: 27 May 2019
Orbit: 593 x 966 km, 66.7° (Epoch: 20 June)

Event Time Altitude Azimuth Distance (km) Brightness Sun altitude
Rises 07:33:34 0° 211° (SSW) 3,527 9.0 18.7°
Reaches altitude 10° 07:36:01 10° 212° (SSW) 2,625 8.4 19.1°
Maximum altitude 07:42:14 79° 299° (WNW) 981 6.8 20.3°
Drops below altitude 10° 07:48:40 10° 27° (NNE) 2,707 9.5 21.5°
Sets 07:51:14 0° 28° (NNE) 3,644 10.0 22.0°
